• Em Portugal
  • Lista de países
  • Para 7 dias
  • Temperatura da água
  • Mapas de satélite
  • Mapa do tempo
  • Widgets de tempo
  • user-avatar
    Iniciar Sessão

    Previsão horária em Escaldes-Engordany

    Hoje, 15 Agosto, Quarta-feira

    Tempo Temperatura Precipitação Vento Pressão Humidade
    00:00 +10°C° 0 mm 2 m/s 642 mmHg 76%
    01:00 +9°C° 0 mm 2 m/s 642 mmHg 77%
    02:00 +9°C° 0 mm 2 m/s 642 mmHg 78%
    03:00 +9°C° 0 mm 2 m/s 642 mmHg 79%
    04:00 +9°C° 0 mm 2 m/s 642 mmHg 77%
    05:00 +10°C° 0 mm 2 m/s 642 mmHg 76%
    06:00 +12°C° 0 mm 2 m/s 642 mmHg 74%
    07:00 +14°C° 0 mm 1 m/s 643 mmHg 63%
    08:00 +18°C° 0 mm 1 m/s 644 mmHg 53%
    09:00 +20°C° 0 mm 1 m/s 645 mmHg 43%
    10:00 +22°C° 0 mm 1 m/s 645 mmHg 40%
    11:00 +23°C° 0 mm 1 m/s 645 mmHg 37%
    12:00 +24°C° 0 mm 1 m/s 646 mmHg 36%
    13:00 +24°C° 0 mm 1 m/s 645 mmHg 37%
    14:00 +24°C° 0 mm 1 m/s 645 mmHg 37%
    15:00 +25°C° 0 mm 1 m/s 645 mmHg 38%
    16:00 +23°C° 0 mm 1 m/s 644 mmHg 45%
    17:00 +22°C° 0 mm 1 m/s 644 mmHg 52%
    18:00 +20°C° 0 mm 1 m/s 643 mmHg 59%
    19:00 +19°C° 0 mm 1 m/s 642 mmHg 65%
    20:00 +16°C° 0 mm 1 m/s 642 mmHg 71%
    21:00 +14°C° 0 mm 1 m/s 642 mmHg 77%
    22:00 +14°C° 0 mm 1 m/s 642 mmHg 78%
    23:00 +14°C° 0 mm 1 m/s 641 mmHg 80%

    Amanhã, 16 Agosto, Quinta-feira

    Tempo Temperatura Precipitação Vento Pressão Humidade
    00:00 +13°C° 0 mm 1 m/s 641 mmHg 82%
    01:00 +13°C° 0 mm 1 m/s 641 mmHg 82%
    02:00 +13°C° 0 mm 1 m/s 641 mmHg 82%
    03:00 +13°C° 0 mm 1 m/s 640 mmHg 83%
    04:00 +13°C° 0 mm 1 m/s 641 mmHg 82%
    05:00 +14°C° 0 mm 1 m/s 641 mmHg 80%
    06:00 +14°C° 0 mm 1 m/s 641 mmHg 79%
    07:00 +16°C° 0 mm 1 m/s 642 mmHg 70%
    08:00 +20°C° 0 mm 1 m/s 642 mmHg 61%
    09:00 +22°C° 0 mm 1 m/s 643 mmHg 52%
    10:00 +23°C° 0,3 mm 1 m/s 643 mmHg 52%
    11:00 +23°C° 0,3 mm 1 m/s 643 mmHg 53%
    12:00 +23°C° 0,3 mm 2 m/s 643 mmHg 53%
    13:00 +23°C° 1 mm 1 m/s 643 mmHg 55%
    14:00 +23°C° 1 mm 1 m/s 642 mmHg 56%
    15:00 +23°C° 1 mm 1 m/s 642 mmHg 57%
    16:00 +22°C° 1 mm 1 m/s 642 mmHg 62%
    17:00 +21°C° 1 mm 1 m/s 641 mmHg 67%
    18:00 +20°C° 1 mm 1 m/s 641 mmHg 72%
    19:00 +18°C° 1 mm 1 m/s 641 mmHg 77%
    20:00 +16°C° 1 mm 1 m/s 641 mmHg 82%
    21:00 +15°C° 1 mm 1 m/s 641 mmHg 87%
    22:00 +15°C° 1,2 mm 1 m/s 641 mmHg 88%
    23:00 +14°C° 1,2 mm 1 m/s 641 mmHg 89%

    Depois de amanhã, 17 Agosto, Sexta-feira

    Tempo Temperatura Precipitação Vento Pressão Humidade
    00:00 +14°C° 1,2 mm 1 m/s 641 mmHg 90%
    01:00 +14°C° 1 mm 1 m/s 641 mmHg 90%
    02:00 +14°C° 1 mm 1 m/s 641 mmHg 91%
    03:00 +14°C° 1 mm 1 m/s 641 mmHg 91%
    04:00 +14°C° 0,5 mm 1 m/s 641 mmHg 91%
    05:00 +14°C° 0,5 mm 1 m/s 641 mmHg 90%
    06:00 +14°C° 0,5 mm 1 m/s 641 mmHg 90%
    07:00 +14°C° 0,3 mm 1 m/s 642 mmHg 86%
    08:00 +15°C° 0,3 mm 1 m/s 642 mmHg 83%
    09:00 +16°C° 0,3 mm 1 m/s 642 mmHg 79%
    10:00 +17°C° 0,3 mm 2 m/s 643 mmHg 74%
    11:00 +17°C° 0,3 mm 2 m/s 643 mmHg 70%
    12:00 +18°C° 0,3 mm 2 m/s 644 mmHg 66%
    13:00 +18°C° 1 mm 2 m/s 643 mmHg 67%
    14:00 +18°C° 1 mm 2 m/s 643 mmHg 69%
    15:00 +18°C° 1 mm 2 m/s 643 mmHg 71%
    16:00 +17°C° 1 mm 2 m/s 643 mmHg 75%
    17:00 +16°C° 1 mm 2 m/s 642 mmHg 79%
    18:00 +15°C° 1 mm 2 m/s 642 mmHg 83%
    19:00 +14°C° 0,1 mm 2 m/s 642 mmHg 85%
    20:00 +13°C° 0,1 mm 2 m/s 642 mmHg 87%
    21:00 +12°C° 0,1 mm 2 m/s 642 mmHg 89%
    22:00 +10°C° 0 mm 2 m/s 642 mmHg 89%
    23:00 +10°C° 0 mm 2 m/s 642 mmHg 89%

    18 Agosto, Sábado

    Tempo Temperatura Precipitação Vento Pressão Humidade
    00:00 +9°C° 0 mm 2 m/s 642 mmHg 89%
    01:00 +9°C° 0 mm 2 m/s 642 mmHg 88%
    02:00 +9°C° 0 mm 2 m/s 642 mmHg 88%
    03:00 +8°C° 0 mm 2 m/s 642 mmHg 87%
    04:00 +8°C° 0 mm 2 m/s 642 mmHg 86%
    05:00 +8°C° 0 mm 2 m/s 642 mmHg 84%
    06:00 +8°C° 0 mm 2 m/s 642 mmHg 82%
    07:00 +10°C° 0 mm 2 m/s 643 mmHg 71%
    08:00 +14°C° 0 mm 2 m/s 644 mmHg 59%
    09:00 +16°C° 0 mm 2 m/s 645 mmHg 47%
    10:00 +18°C° 0 mm 2 m/s 645 mmHg 43%
    11:00 +19°C° 0 mm 2 m/s 645 mmHg 40%
    12:00 +20°C° 0 mm 2 m/s 645 mmHg 36%
    13:00 +20°C° 0 mm 2 m/s 645 mmHg 37%
    14:00 +20°C° 0 mm 2 m/s 645 mmHg 38%
    15:00 +21°C° 0 mm 2 m/s 645 mmHg 39%
    16:00 +19°C° 0 mm 2 m/s 644 mmHg 46%
    17:00 +18°C° 0 mm 2 m/s 644 mmHg 53%
    18:00 +17°C° 0 mm 2 m/s 644 mmHg 60%
    19:00 +15°C° 0 mm 2 m/s 643 mmHg 65%
    20:00 +13°C° 0 mm 2 m/s 643 mmHg 70%
    21:00 +12°C° 0 mm 2 m/s 643 mmHg 75%
    22:00 +10°C° 0 mm 2 m/s 643 mmHg 74%
    23:00 +10°C° 0 mm 2 m/s 643 mmHg 72%

    19 Agosto, Domingo

    Tempo Temperatura Precipitação Vento Pressão Humidade
    00:00 +9°C° 0 mm 2 m/s 643 mmHg 70%
    01:00 +9°C° 0 mm 2 m/s 642 mmHg 68%
    02:00 +9°C° 0 mm 2 m/s 642 mmHg 65%
    03:00 +9°C° 0 mm 2 m/s 642 mmHg 62%
    04:00 +9°C° 0 mm 2 m/s 642 mmHg 61%
    05:00 +9°C° 0 mm 2 m/s 643 mmHg 59%
    06:00 +9°C° 0 mm 2 m/s 643 mmHg 57%
    07:00 +13°C° 0 mm 2 m/s 644 mmHg 50%
    08:00 +16°C° 0 mm 1 m/s 645 mmHg 43%
    09:00 +20°C° 0 mm 1 m/s 646 mmHg 36%
    10:00 +21°C° 0 mm 1 m/s 646 mmHg 34%
    11:00 +22°C° 0 mm 1 m/s 647 mmHg 33%
    12:00 +24°C° 0 mm 1 m/s 647 mmHg 31%
    13:00 +24°C° 0 mm 1 m/s 646 mmHg 32%
    14:00 +24°C° 0 mm 1 m/s 646 mmHg 33%
    15:00 +24°C° 0 mm 2 m/s 646 mmHg 34%
    16:00 +21°C° 0 mm 2 m/s 645 mmHg 41%
    17:00 +21°C° 0 mm 1 m/s 645 mmHg 48%
    18:00 +19°C° 0 mm 1 m/s 645 mmHg 55%
    19:00 +17°C° 0 mm 2 m/s 644 mmHg 60%
    20:00 +15°C° 0 mm 2 m/s 644 mmHg 65%
    21:00 +13°C° 0 mm 2 m/s 644 mmHg 71%
    22:00 +13°C° 0 mm 2 m/s 644 mmHg 70%
    23:00 +12°C° 0 mm 2 m/s 643 mmHg 69%

    20 Agosto, Segunda-feira

    Tempo Temperatura Precipitação Vento Pressão Humidade
    00:00 +12°C° 0 mm 2 m/s 643 mmHg 69%
    01:00 +12°C° 0 mm 2 m/s 643 mmHg 67%
    02:00 +12°C° 0 mm 2 m/s 643 mmHg 65%
    03:00 +10°C° 0 mm 2 m/s 643 mmHg 63%
    04:00 +12°C° 0 mm 2 m/s 643 mmHg 62%
    05:00 +12°C° 0 mm 2 m/s 643 mmHg 61%
    06:00 +12°C° 0 mm 2 m/s 643 mmHg 61%
    07:00 +15°C° 0 mm 2 m/s 644 mmHg 54%
    08:00 +17°C° 0 mm 2 m/s 645 mmHg 47%
    09:00 +20°C° 0 mm 2 m/s 646 mmHg 41%
    10:00 +21°C° 0 mm 2 m/s 646 mmHg 39%
    11:00 +23°C° 0 mm 2 m/s 647 mmHg 37%
    12:00 +24°C° 0 mm 2 m/s 647 mmHg 35%
    13:00 +24°C° 0 mm 2 m/s 646 mmHg 36%
    14:00 +25°C° 0 mm 2 m/s 646 mmHg 37%
    15:00 +25°C° 0 mm 2 m/s 646 mmHg 38%
    16:00 +23°C° 0 mm 2 m/s 645 mmHg 45%
    17:00 +21°C° 0 mm 2 m/s 645 mmHg 52%
    18:00 +19°C° 0 mm 2 m/s 644 mmHg 59%
    19:00 +18°C° 0 mm 2 m/s 644 mmHg 64%
    20:00 +16°C° 0 mm 2 m/s 644 mmHg 70%
    21:00 +14°C° 0 mm 2 m/s 644 mmHg 76%
    22:00 +14°C° 0 mm 2 m/s 644 mmHg 77%
    23:00 +14°C° 0 mm 2 m/s 643 mmHg 77%
    Mostrar mais